Location: Newark
(22.3060°N, 114.2134°E)
Time: 06:58:24
(UTC+00:00)

Vanguard 2 - Pass Details

Date: 06 August 2021
Orbit: 553 x 2937 km, 32.9° (Epoch: 24 September)

Event Time Altitude Azimuth Distance (km) Brightness Sun altitude
Rises 17:34:49 0° 243° (WSW) 3,902 - -48.0°
Reaches altitude 10° 17:38:03 10° 244° (WSW) 2,618 - -47.7°
Maximum altitude 17:43:52 88° 332° (NNW) 684 - -47.1°
Drops below altitude 10° 17:48:01 10° 64° (ENE) 1,888 - -46.7°
Sets 17:50:02 0° 64° (ENE) 2,728 - -46.4°
